Tracking 27371 objects as of 7-Jun-2023
HD Live streaming from Space Station
objects crossing your sky now

NOAA 16 DEB

Track NOAA 16 DEB now!
10-day predictions


NORAD ID: 41264
Int'l Code: 2000-055FQ
Perigee: 841.2 km
Apogee: 848.0 km
Inclination: 98.7 °
Period: 101.7 minutes
Semi major axis: 7215 km
RCS: Unknown
Launch date: September 21, 2000
Source: United States (US)
Launch site: AIR FORCE WESTERN TEST RANGE (AFWTR)

Note: This is SATELLITE DEBRIS
Your satellite tracking list
Your tracking list is empty




NASA's NSSDC Master Catalog

Two Line Element Set (TLE):
1 41264U 00055FQ  23156.98912260  .00002794  00000-0  14266-2 0  9994
2 41264  98.6976 215.8662 0004731  97.6167 262.5545 14.16420601384464
Source of the keplerian elements: AFSPC